QPF
0.05 0.06 0.05 0.03 0.04 0.04 0.06 0.10 0.11 0.10 0.10 0.10 0.10 0.11 0.09 0.06 0.05 0.06 0.06 0.04 0.03 0.02 0.02 0.03 0.04 0.03 0.02 0.02 0.03 0.03 0.04 0.03 0.04 0.05 0.06 0.07 0.09 0.11
0.07 0.10 0.09 0.06 0.04 0.03 0.04 0.05 0.07 0.09 0.10 0.09 0.08 0.07 0.06 0.06 0.05 0.03 0.04 0.03 0.02 0.02 0.01 0.02 0.03 0.03 0.02 0.01 0.01 0.02 0.02 0.01 0.01 0.01 0.01 0.02 0.02 0.03
0.07 0.09 0.09 0.07 0.05 0.04 0.03 0.03 0.05 0.08 0.09 0.10 0.10 0.08 0.08 0.07 0.05 0.04 0.04 0.04 0.03 0.02 0.01 0.01 0.01 0.02 0.01 0.01 0.01 0.01 0.01 0.01 0.01 0.01 0.01 0.01 0.01 0.02
0.08 0.08 0.07 0.06 0.06 0.05 0.05 0.04 0.05 0.06 0.07 0.09 0.10 0.11 0.11 0.09 0.08 0.07 0.05 0.05 0.04 0.03 0.02 0.01 0.01 0.01 0.01 0.01 0.01 0.02 0.01 0.01 0.01 0.01 0.01 0.01 0.01 0.02
0.08 0.08 0.08 0.07 0.06 0.06 0.06 0.05 0.04 0.05 0.09 0.09 0.10 0.11 0.10 0.08 0.08 0.07 0.07 0.08 0.06 0.05 0.04 0.03 0.02 0.02 0.02 0.01 0.01 0.01 0.01 0.01 0.02 0.02 0.02 0.01 0.01 0.01
0.06 0.06 0.06 0.06 0.07 0.06 0.05 0.05 0.03 0.03 0.06 0.07 0.08 0.09 0.09 0.08 0.06 0.06 0.07 0.07 0.05 0.05 0.04 0.04 0.03 0.02 0.02 0.02 0.02 0.01 0.01 0.01 0.02 0.02 0.02 0.02 0.02 0.02
0.04 0.05 0.04 0.04 0.05 0.05 0.04 0.04 0.03 0.03 0.04 0.04 0.05 0.06 0.06 0.08 0.06 0.05 0.06 0.06 0.05 0.06 0.05 0.03 0.03 0.03 0.03 0.02 0.02 0.02 0.02 0.01 0.01 0.01 0.01 0.01 0.01 0.01
0.03 0.03 0.03 0.03 0.03 0.04 0.04 0.03 0.03 0.03 0.02 0.03 0.03 0.04 0.06 0.06 0.08 0.06 0.05 0.05 0.05 0.05 0.06 0.05 0.05 0.04 0.03 0.03 0.03 0.02 0.02 0.02 0.02 0.01 0.01 0.01 0.01 0.01
0.03 0.02 0.02 0.03 0.04 0.03 0.03 0.02 0.02 0.02 0.02 0.03 0.02 0.02 0.03 0.05 0.07 0.08 0.06 0.05 0.04 0.03 0.05 0.05 0.05 0.05 0.04 0.04 0.04 0.03 0.03 0.02 0.01 0.01 0.01 0.01 0.01 0.01
0.02 0.02 0.02 0.03 0.03 0.03 0.03 0.03 0.03 0.03 0.03 0.03 0.03 0.02 0.02 0.03 0.04 0.05 0.06 0.06 0.05 0.03 0.04 0.04 0.04 0.04 0.04 0.05 0.05 0.04 0.03 0.02 0.01 0.01 0.00 0.00 0.00 0.00
0.02 0.01 0.01 0.02 0.01 0.01 0.02 0.03 0.03 0.03 0.02 0.01 0.02 0.02 0.02 0.01 0.02 0.03 0.05 0.06 0.05 0.04 0.02 0.03 0.03 0.03 0.04 0.04 0.04 0.04 0.04 0.03 0.02 0.01 0.01 0.00 0.00 0.00
0.02 0.01 0.01 0.01 0.01 0.01 0.01 0.02 0.02 0.02 0.01 0.01 0.01 0.01 0.01 0.01 0.01 0.03 0.05 0.06 0.07 0.05 0.02 0.03 0.03 0.03 0.05 0.04 0.03 0.02 0.02 0.02 0.02 0.01 0.01 0.01 0.01 0.01
0.02 0.02 0.02 0.01 0.00 0.01 0.01 0.01 0.01 0.01 0.01 0.01 0.01 0.02 0.02 0.03 0.04 0.03 0.03 0.05 0.08 0.06 0.02 0.03 0.04 0.04 0.05 0.05 0.03 0.02 0.03 0.03 0.03 0.03 0.02 0.02 0.02 0.01
0.03 0.03 0.02 0.01 0.01 0.00 0.00 0.01 0.01 0.01 0.01 0.01 0.02 0.02 0.02 0.03 0.03 0.03 0.03 0.03 0.05 0.06 0.04 0.04 0.05 0.05 0.06 0.05 0.04 0.03 0.03 0.03 0.03 0.03 0.03 0.04 0.03 0.03
0.02 0.03 0.02 0.01 0.00 0.00 0.00 0.00 0.00 0.01 0.01 0.02 0.02 0.02 0.02 0.03 0.03 0.03 0.03 0.03 0.03 0.04 0.04 0.03 0.04 0.05 0.06 0.06 0.05 0.04 0.04 0.04 0.04 0.04 0.04 0.04 0.04 0.04
0.01 0.01 0.01 0.01 0.01 0.01 0.01 0.01 0.01 0.01 0.01 0.02 0.02 0.02 0.02 0.02 0.02 0.03 0.04 0.03 0.02 0.03 0.04 0.05 0.05 0.05 0.05 0.06 0.05 0.05 0.05 0.04 0.04 0.04 0.04 0.05 0.06 0.05
0.01 0.01 0.02 0.01 0.01 0.01 0.01 0.01 0.01 0.01 0.01 0.01 0.02 0.02 0.02 0.02 0.02 0.03 0.04 0.04 0.03 0.02 0.04 0.06 0.07 0.07 0.07 0.07 0.07 0.05 0.05 0.06 0.06 0.06 0.06 0.07 0.07 0.06
0.01 0.02 0.02 0.02 0.02 0.02 0.01 0.01 0.02 0.02 0.02 0.01 0.01 0.01 0.01 0.02 0.02 0.02 0.03 0.04 0.04 0.03 0.03 0.05 0.07 0.08 0.08 0.09 0.08 0.06 0.05 0.06 0.08 0.07 0.07 0.08 0.08 0.07
0.01 0.02 0.02 0.02 0.02 0.02 0.01 0.01 0.02 0.02 0.01 0.01 0.01 0.01 0.01 0.02 0.02 0.02 0.02 0.03 0.04 0.05 0.05 0.05 0.06 0.07 0.07 0.08 0.07 0.06 0.06 0.06 0.07 0.07 0.09 0.08 0.07 0.08
0.02 0.02 0.03 0.03 0.03 0.03 0.03 0.02 0.02 0.02 0.02 0.02 0.02 0.01 0.01 0.02 0.02 0.02 0.02 0.02 0.03 0.05 0.05 0.05 0.05 0.06 0.07 0.07 0.07 0.06 0.06 0.07 0.07 0.07 0.07 0.07 0.07 0.06
0.02 0.02 0.02 0.03 0.03 0.03 0.04 0.04 0.03 0.02 0.02 0.02 0.02 0.02 0.01 0.02 0.02 0.02 0.02 0.02 0.03 0.05 0.05 0.04 0.04 0.05 0.05 0.06 0.06 0.06 0.06 0.06 0.06 0.07 0.07 0.07 0.09 0.08
0.03 0.03 0.02 0.02 0.02 0.03 0.04 0.04 0.03 0.03 0.02 0.02 0.02 0.02 0.02 0.02 0.02 0.02 0.03 0.03 0.03 0.04 0.05 0.04 0.04 0.03 0.04 0.05 0.05 0.04 0.05 0.05 0.05 0.04 0.04 0.05 0.05 0.06
0.03 0.03 0.02 0.02 0.02 0.02 0.03 0.03 0.03 0.02 0.02 0.02 0.02 0.02 0.02 0.02 0.02 0.02 0.03 0.03 0.03 0.04 0.05 0.05 0.05 0.04 0.04 0.04 0.04 0.04 0.03 0.04 0.04 0.03 0.03 0.02 0.02 0.02
MSLP
1005.90 1005.83 1005.84 1005.90 1005.98 1006.03 1006.03 1005.94 1005.77 1005.52 1005.21 1004.86 1004.52 1004.21 1003.96 1003.78 1003.68 1003.66 1003.70 1003.80 1003.93 1004.09 1004.25 1004.41 1004.55 1004.69 1004.80 1004.90 1004.98 1005.04 1005.09 1005.11 1005.11 1005.09 1005.06 1005.01 1004.97 1004.93
1006.16 1006.04 1005.99 1005.98 1006.00 1005.99 1005.95 1005.84 1005.65 1005.39 1005.08 1004.73 1004.39 1004.06 1003.78 1003.56 1003.40 1003.30 1003.26 1003.26 1003.30 1003.36 1003.44 1003.54 1003.64 1003.74 1003.84 1003.95 1004.04 1004.12 1004.18 1004.23 1004.24 1004.23 1004.19 1004.13 1004.06 1003.99
1006.57 1006.42 1006.32 1006.27 1006.23 1006.19 1006.12 1006.00 1005.82 1005.58 1005.29 1004.97 1004.64 1004.32 1004.02 1003.75 1003.52 1003.33 1003.17 1003.04 1002.95 1002.88 1002.84 1002.83 1002.85 1002.89 1002.95 1003.02 1003.11 1003.19 1003.27 1003.33 1003.37 1003.38 1003.36 1003.32 1003.25 1003.18
1007.08 1006.91 1006.79 1006.71 1006.65 1006.59 1006.51 1006.40 1006.24 1006.03 1005.79 1005.51 1005.21 1004.91 1004.60 1004.29 1003.99 1003.70 1003.42 1003.15 1002.91 1002.70 1002.52 1002.38 1002.28 1002.22 1002.20 1002.22 1002.26 1002.32 1002.39 1002.46 1002.51 1002.55 1002.57 1002.57 1002.55 1002.52
1007.63 1007.47 1007.34 1007.25 1007.18 1007.11 1007.03 1006.93 1006.80 1006.63 1006.44 1006.21 1005.96 1005.68 1005.37 1005.04 1004.69 1004.31 1003.93 1003.54 1003.17 1002.81 1002.49 1002.22 1001.99 1001.82 1001.70 1001.62 1001.60 1001.60 1001.63 1001.68 1001.74 1001.81 1001.87 1001.93 1001.97 1002.01
1008.16 1008.02 1007.90 1007.81 1007.73 1007.66 1007.58 1007.49 1007.38 1007.25 1007.10 1006.91 1006.70 1006.46 1006.17 1005.84 1005.46 1005.04 1004.59 1004.12 1003.65 1003.19 1002.75 1002.36 1002.01 1001.72 1001.49 1001.31 1001.19 1001.11 1001.08 1001.09 1001.13 1001.21 1001.31 1001.43 1001.55 1001.66
1008.64 1008.52 1008.41 1008.32 1008.24 1008.15 1008.06 1007.97 1007.86 1007.75 1007.62 1007.47 1007.30 1007.08 1006.83 1006.52 1006.15 1005.73 1005.26 1004.77 1004.25 1003.73 1003.23 1002.76 1002.33 1001.95 1001.61 1001.32 1001.09 1000.92 1000.80 1000.75 1000.76 1000.83 1000.95 1001.11 1001.29 1001.47
1009.06 1008.95 1008.85 1008.76 1008.65 1008.55 1008.43 1008.31 1008.18 1008.06 1007.93 1007.79 1007.64 1007.46 1007.24 1006.97 1006.64 1006.26 1005.83 1005.36 1004.86 1004.35 1003.84 1003.35 1002.88 1002.43 1002.02 1001.64 1001.32 1001.05 1000.84 1000.71 1000.67 1000.71 1000.82 1001.00 1001.20 1001.41
1009.42 1009.33 1009.23 1009.11 1008.98 1008.83 1008.67 1008.50 1008.33 1008.16 1008.01 1007.86 1007.71 1007.55 1007.36 1007.13 1006.87 1006.56 1006.20 1005.80 1005.38 1004.93 1004.47 1004.01 1003.55 1003.09 1002.64 1002.21 1001.82 1001.47 1001.18 1000.98 1000.87 1000.86 1000.93 1001.08 1001.27 1001.46
1009.77 1009.67 1009.56 1009.42 1009.25 1009.04 1008.81 1008.57 1008.33 1008.11 1007.91 1007.72 1007.55 1007.39 1007.23 1007.05 1006.84 1006.61 1006.35 1006.05 1005.73 1005.39 1005.02 1004.64 1004.23 1003.81 1003.38 1002.94 1002.51 1002.11 1001.76 1001.49 1001.32 1001.24 1001.25 1001.34 1001.46 1001.58
1010.14 1010.03 1009.90 1009.71 1009.49 1009.22 1008.92 1008.60 1008.29 1007.99 1007.72 1007.49 1007.29 1007.11 1006.95 1006.80 1006.64 1006.48 1006.30 1006.11 1005.90 1005.67 1005.42 1005.14 1004.83 1004.48 1004.10 1003.69 1003.27 1002.86 1002.48 1002.17 1001.94 1001.79 1001.73 1001.72 1001.74 1001.73
1010.56 1010.42 1010.25 1010.02 1009.74 1009.41 1009.04 1008.65 1008.26 1007.89 1007.56 1007.27 1007.03 1006.82 1006.65 1006.50 1006.36 1006.24 1006.12 1006.01 1005.89 1005.77 1005.63 1005.46 1005.25 1005.00 1004.71 1004.36 1003.99 1003.60 1003.23 1002.91 1002.63 1002.43 1002.28 1002.18 1002.07 1001.92
1011.02 1010.84 1010.63 1010.35 1010.01 1009.62 1009.19 1008.74 1008.30 1007.88 1007.49 1007.16 1006.87 1006.62 1006.42 1006.25 1006.11 1005.99 1005.90 1005.82 1005.76 1005.71 1005.66 1005.58 1005.48 1005.33 1005.13 1004.87 1004.57 1004.25 1003.91 1003.59 1003.31 1003.07 1002.86 1002.66 1002.44 1002.15
1011.48 1011.26 1010.99 1010.66 1010.28 1009.84 1009.37 1008.89 1008.42 1007.97 1007.55 1007.18 1006.86 1006.58 1006.33 1006.12 1005.95 1005.80 1005.69 1005.61 1005.56 1005.54 1005.54 1005.53 1005.51 1005.45 1005.35 1005.19 1004.97 1004.72 1004.44 1004.16 1003.89 1003.64 1003.39 1003.13 1002.82 1002.42
1011.91 1011.64 1011.31 1010.93 1010.51 1010.04 1009.56 1009.07 1008.60 1008.15 1007.73 1007.36 1007.02 1006.70 1006.42 1006.16 1005.92 1005.72 1005.55 1005.43 1005.35 1005.32 1005.33 1005.36 1005.38 1005.39 1005.37 1005.29 1005.17 1005.00 1004.80 1004.57 1004.33 1004.09 1003.84 1003.55 1003.20 1002.74
1012.25 1011.92 1011.54 1011.12 1010.67 1010.20 1009.73 1009.26 1008.82 1008.40 1008.01 1007.65 1007.31 1006.98 1006.66 1006.34 1006.04 1005.76 1005.51 1005.32 1005.18 1005.10 1005.09 1005.11 1005.16 1005.21 1005.24 1005.24 1005.19 1005.09 1004.96 1004.80 1004.61 1004.41 1004.19 1003.91 1003.57 1003.11
1012.47 1012.08 1011.67 1011.23 1010.77 1010.31 1009.87 1009.45 1009.06 1008.69 1008.35 1008.03 1007.70 1007.37 1007.02 1006.65 1006.28 1005.91 1005.58 1005.29 1005.07 1004.93 1004.86 1004.85 1004.89 1004.95 1005.02 1005.06 1005.06 1005.03 1004.96 1004.86 1004.73 1004.58 1004.41 1004.19 1003.90 1003.50
1012.57 1012.15 1011.71 1011.27 1010.83 1010.40 1010.01 1009.65 1009.33 1009.04 1008.76 1008.48 1008.18 1007.84 1007.47 1007.05 1006.61 1006.17 1005.74 1005.36 1005.05 1004.83 1004.69 1004.63 1004.64 1004.69 1004.76 1004.81 1004.85 1004.86 1004.83 1004.78 1004.70 1004.61 1004.49 1004.35 1004.14 1003.85
1012.59 1012.17 1011.74 1011.31 1010.91 1010.54 1010.21 1009.92 1009.67 1009.45 1009.23 1008.99 1008.71 1008.38 1007.98 1007.52 1007.02 1006.49 1005.98 1005.51 1005.11 1004.80 1004.59 1004.47 1004.43 1004.45 1004.50 1004.55 1004.59 1004.61 1004.61 1004.58 1004.55 1004.50 1004.45 1004.38 1004.28 1004.11
1012.60 1012.21 1011.81 1011.43 1011.08 1010.77 1010.51 1010.30 1010.12 1009.96 1009.79 1009.58 1009.32 1008.97 1008.54 1008.04 1007.47 1006.87 1006.28 1005.73 1005.24 1004.85 1004.57 1004.38 1004.29 1004.26 1004.27 1004.30 1004.32 1004.33 1004.33 1004.32 1004.30 1004.29 1004.29 1004.29 1004.28 1004.24
1012.67 1012.32 1011.98 1011.67 1011.39 1011.15 1010.97 1010.82 1010.70 1010.59 1010.45 1010.25 1009.98 1009.61 1009.14 1008.58 1007.95 1007.29 1006.62 1005.99 1005.43 1004.96 1004.61 1004.35 1004.19 1004.11 1004.07 1004.06 1004.05 1004.04 1004.03 1004.01 1004.00 1004.01 1004.05 1004.11 1004.18 1004.24
1012.82 1012.54 1012.28 1012.04 1011.84 1011.69 1011.57 1011.48 1011.41 1011.32 1011.18 1010.98 1010.68 1010.27 1009.75 1009.14 1008.45 1007.71 1006.98 1006.28 1005.65 1005.12 1004.69 1004.37 1004.15 1004.01 1003.91 1003.85 1003.81 1003.76 1003.72 1003.69 1003.69 1003.71 1003.77 1003.87 1004.00 1004.15
1013.06 1012.86 1012.68 1012.53 1012.41 1012.32 1012.26 1012.22 1012.17 1012.09 1011.95 1011.72 1011.38 1010.92 1010.35 1009.68 1008.93 1008.13 1007.34 1006.58 1005.90 1005.31 1004.82 1004.44 1004.15 1003.95 1003.80 1003.69 1003.59 1003.52 1003.46 1003.41 1003.40 1003.44 1003.52 1003.66 1003.84 1004.04
Thickness
5724 5723 5722 5723 5723 5723 5721 5718 5711 5706 5707 5713 5715 5718 5719 5718 5715 5714 5713 5711 5709 5708 5707 5706 5704 5702 5702 5701 5700 5699 5698 5697 5697 5697 5697 5696 5696 5697
5719 5717 5717 5718 5718 5717 5716 5715 5712 5707 5703 5706 5708 5711 5713 5710 5708 5708 5707 5706 5704 5703 5702 5700 5699 5697 5696 5695 5694 5693 5692 5692 5691 5691 5691 5691 5691 5691
5714 5713 5711 5711 5711 5711 5711 5710 5708 5706 5700 5701 5703 5704 5704 5703 5702 5701 5700 5699 5699 5698 5697 5695 5693 5692 5691 5690 5688 5687 5686 5685 5685 5685 5685 5685 5685 5686
5707 5706 5705 5706 5704 5704 5703 5703 5702 5701 5697 5693 5695 5696 5695 5696 5695 5694 5694 5694 5693 5692 5691 5689 5688 5686 5685 5683 5682 5681 5680 5679 5678 5678 5678 5678 5679 5679
5702 5700 5699 5698 5697 5697 5696 5695 5695 5695 5693 5690 5688 5689 5688 5688 5687 5686 5686 5685 5686 5686 5684 5683 5681 5680 5679 5677 5676 5675 5674 5673 5672 5672 5671 5672 5672 5672
5697 5696 5694 5693 5691 5690 5689 5688 5687 5686 5685 5683 5681 5680 5679 5680 5678 5676 5675 5676 5677 5678 5677 5676 5674 5673 5672 5671 5669 5668 5667 5667 5666 5665 5665 5665 5665 5666
5691 5690 5689 5688 5686 5684 5684 5681 5679 5677 5676 5674 5672 5671 5669 5668 5668 5668 5667 5667 5668 5669 5668 5668 5667 5665 5664 5663 5663 5662 5661 5660 5659 5659 5659 5658 5659 5659
5685 5685 5684 5682 5680 5678 5676 5675 5673 5671 5669 5666 5664 5663 5662 5662 5661 5660 5658 5657 5657 5660 5659 5658 5659 5658 5658 5657 5657 5656 5655 5654 5653 5652 5652 5652 5652 5652
5680 5679 5679 5677 5674 5672 5670 5669 5667 5666 5664 5662 5659 5657 5656 5656 5654 5652 5651 5650 5649 5652 5651 5650 5651 5650 5651 5652 5651 5650 5649 5647 5646 5646 5645 5645 5645 5646
5676 5674 5671 5668 5667 5664 5663 5662 5661 5660 5659 5658 5657 5655 5654 5652 5650 5648 5646 5645 5645 5645 5646 5642 5643 5643 5645 5643 5643 5643 5642 5641 5640 5639 5638 5638 5638 5639
5670 5668 5665 5662 5659 5657 5656 5655 5654 5653 5654 5653 5652 5650 5648 5646 5644 5641 5639 5637 5636 5637 5639 5636 5636 5635 5636 5636 5636 5636 5635 5635 5634 5633 5632 5631 5631 5631
5664 5662 5658 5655 5652 5650 5648 5647 5646 5646 5647 5646 5644 5643 5642 5641 5639 5636 5634 5631 5630 5630 5631 5629 5628 5627 5625 5628 5628 5628 5627 5627 5626 5626 5625 5625 5624 5623
5658 5656 5652 5649 5646 5643 5641 5641 5640 5639 5638 5638 5638 5637 5637 5636 5634 5633 5631 5629 5626 5625 5626 5623 5621 5620 5618 5619 5620 5620 5620 5620 5619 5618 5618 5618 5618 5617
5651 5650 5647 5643 5641 5638 5637 5636 5634 5632 5632 5631 5631 5630 5630 5629 5628 5628 5626 5624 5623 5622 5621 5618 5616 5614 5612 5611 5612 5613 5614 5614 5613 5613 5612 5612 5611 5611
5645 5643 5640 5638 5635 5634 5632 5630 5628 5627 5625 5624 5623 5623 5623 5623 5622 5621 5619 5618 5617 5617 5616 5615 5613 5611 5608 5606 5606 5606 5606 5607 5607 5607 5607 5606 5606 5606
5638 5636 5634 5633 5630 5629 5627 5625 5623 5621 5620 5618 5617 5617 5618 5616 5615 5614 5612 5611 5609 5610 5610 5610 5608 5606 5603 5602 5600 5600 5600 5601 5602 5602 5602 5602 5602 5603
5630 5629 5629 5627 5625 5624 5622 5621 5619 5616 5614 5613 5611 5610 5609 5609 5608 5607 5606 5604 5602 5601 5601 5602 5601 5600 5599 5596 5594 5595 5595 5596 5598 5598 5596 5595 5597 5598
5623 5624 5624 5623 5621 5619 5617 5615 5613 5611 5609 5607 5605 5603 5602 5601 5600 5600 5599 5598 5596 5595 5595 5594 5593 5591 5590 5590 5590 5590 5591 5591 5592 5592 5591 5589 5590 5592
5619 5620 5620 5619 5617 5615 5612 5610 5607 5605 5603 5601 5600 5598 5596 5595 5594 5593 5593 5592 5590 5590 5589 5589 5586 5583 5581 5582 5585 5586 5585 5585 5585 5585 5586 5585 5585 5587
5616 5616 5615 5613 5611 5609 5607 5605 5602 5600 5599 5597 5595 5593 5591 5590 5589 5588 5588 5587 5586 5584 5584 5583 5581 5580 5578 5577 5578 5579 5580 5580 5580 5580 5581 5581 5580 5582
5613 5611 5609 5608 5606 5604 5601 5599 5597 5595 5593 5592 5590 5588 5586 5584 5583 5583 5583 5581 5580 5580 5578 5578 5578 5577 5576 5574 5573 5574 5575 5576 5576 5576 5576 5575 5575 5576
5608 5606 5604 5602 5600 5598 5596 5593 5591 5589 5588 5586 5584 5582 5581 5579 5578 5578 5577 5577 5576 5576 5575 5575 5574 5573 5571 5569 5568 5568 5569 5570 5571 5571 5571 5572 5572 5572
5603 5600 5598 5596 5595 5592 5590 5588 5585 5583 5582 5580 5578 5576 5574 5573 5572 5572 5572 5572 5572 5571 5571 5570 5569 5568 5567 5566 5565 5565 5566 5566 5566 5566 5566 5569 5569 5570